This demonstration page uses our WeatherBlox Daily Observations layout. Learn more.

39.01783, -85.05884

Hourly Observations for January 29, 2019

Temp ( °F °C ) Dew Point ( °F °C ) Humidity (%) Winds ( mph kmh ) Pressure ( in mb ) Visibility ( mi km ) Precip ( " mm )
12:52 am 00:52 Windy with Snow Likely 22 -5.6 15 -9.4 75 75 W 20 31 29.88 1012 6 9.656064 0.001 0.001
1:52 am 01:52 Cloudy 18 -7.8 9 -12.8 68 68 W 22 35 29.91 1013 9 14.484096 0.001 0.001
2:52 am 02:52 Cloudy 17 -8.3 8 -13.3 68 68 W 15 24 29.91 1013 10 16.09344 0 0
3:52 am 03:52 Cloudy 16 -8.9 7 -13.9 67 67 WNW 18 30 29.94 1014 10 16.09344 0 0
4:52 am 04:52 Cloudy 16 -8.9 6 -14.4 65 65 W 17 28 29.94 1014 10 16.09344 0 0
5:52 am 05:52 Cloudy with Light Snow 16 -8.9 8 -13.3 71 71 W 15 24 29.94 1014 4 6.437376 0.001 0.001
6:52 am 06:52 Cloudy with Light Snow 16 -8.9 6 -14.4 65 65 W 17 28 29.97 1015 10 16.09344 0.001 0.001
7:52 am 07:52 Cloudy with Light Snow 15 -9.4 6 -14.4 67 67 W 12 19 30 1016 10 16.09344 0.001 0.001
8:52 am 08:52 Cloudy with Light Snow 15 -9.4 7 -13.9 70 70 W 13 20 30 1016 7 11.265408 0.001 0.001
9:52 am 09:52 Cloudy with Light Snow 16 -8.9 7 -13.9 67 67 WSW 12 19 30.03 1017 8 12.874752 0.001 0.001
10:52 am 10:52 Windy with Snow Likely 16 -8.9 7 -13.9 67 67 W 22 35 30.03 1017 5 8.04672 0.001 0.001
11:52 am 11:52 Cloudy 16 -8.9 6 -14.4 65 65 W 17 28 30.03 1017 9 14.484096 0.001 0.001
12:52 pm 12:52 Cloudy with Light Snow 16 -8.9 6 -14.4 65 65 WSW 13 20 30.03 1017 6 9.656064 0.001 0.001
1:12 pm 13:12 Mostly Cloudy 18 -7.8 6 -14.4 59 59 W 16 26 30.09 1019 10 16.09344 0.001 0.001
1:52 pm 13:52 Mostly Cloudy 17 -8.3 4 -15.6 56 56 WSW 15 24 30 1016 10 16.09344 0.001 0.001
2:52 pm 14:52 Mostly Sunny 20 -6.7 4 -15.6 50 50 W 17 28 30 1016 10 16.09344 0 0
3:52 pm 15:52 Mostly Cloudy 20 -6.7 1 -17.2 43 43 W 18 30 30 1016 10 16.09344 0 0
4:52 pm 16:52 Mostly Cloudy 20 -6.7 2 -16.7 45 45 WSW 15 24 30 1016 10 16.09344 0 0
5:52 pm 17:52 Mostly Sunny 19 -7.2 1 -17.2 45 45 W 17 28 30.03 1017 10 16.09344 0 0
6:52 pm 18:52 Mostly Clear 18 -7.8 2 -16.7 49 49 WSW 10 17 30.03 1017 10 16.09344 0 0
7:52 pm 19:52 Mostly Cloudy 18 -7.8 3 -16.1 52 52 WSW 6 9 30.03 1017 10 16.09344 0 0
8:52 pm 20:52 Cloudy 18 -7.8 5 -15 57 57 SW 8 13 30.03 1017 10 16.09344 0 0
9:52 pm 21:52 Cloudy with Light Snow 19 -7.2 8 -13.3 62 62 WSW 9 15 30 1016 9 14.484096 0.001 0.001
10:40 pm 22:40 Cloudy with Light Snow 18 -7.8 13 -10.6 81 81 W 12 19 30.09 1019 2 3.218688 0.001 0.001
10:52 pm 22:52 Mostly Cloudy with Scattered Snow Showers 18 -7.8 13 -10.6 81 81 WSW 7 11 30.03 1017 1 1.609344 0.001 0.001
10:58 pm 22:58 Mostly Cloudy with Scattered Snow Showers 17 -8.3 14 -10 88 88 WSW 8 13 30.09 1019 0.75 1.207008 0.01 0.254
11:15 pm 23:15 Cloudy with Light Snow 18 -7.8 14 -10 84 84 W 12 19 30.09 1019 1.25 2.01168 0.01 0.254
11:52 pm 23:52 Cloudy with Light Snow 14 -10 8 -13.3 77 77 NW 18 30 30.03 1017 1.5 2.414016 0.01 0.254

Powered by AerisWeather